Location: Unspecified
(0.0000°N, 0.0000°E)
Time: 05:17:26
(UTC+00:00)

RS-8 - Pass Details

Date: 12 October 2022
Orbit: 1579 x 1660 km, 83.0° (Epoch: 09 December)

Event Time Altitude Azimuth Distance (km) Brightness Sun altitude
Rises 19:37:55 0° 179° (S) 4,769 10.7 -27.6°
Reaches altitude 10° 19:40:52 10° 177° (S) 3,782 10.1 -28.3°
Maximum altitude 19:49:59 75° 92° (E) 1,632 7.8 -30.6°
Enters shadow 19:56:29 22° 11° (N) 2,939 9.2 -32.2°
Exits shadow 19:58:16 14° 9° (N) 3,512 9.7 -32.6°
Drops below altitude 10° 19:59:09 10° 8° (N) 3,801 9.9 -32.9°
Sets 20:02:07 0° 7° (N) 4,793 10.5 -33.6°
